Miscellaneous Local Product
Issued by NWS North Platte, NE

Home | Current Version | Previous Version | Text Only | Print | Product List | Glossary On
Versions: 1 2 3 4 5 6 7 8 9 10 11 12 13 14 15 16 17 18 19 20 21 22 23 24 25 26 27 28 29 30 31 32 33 34 35 36 37 38 39 40 41 42 43 44 45 46 47 48 49 50
274
AXUS43 KLBF 241810
MISLBF


WESTERN AND NORTH CENTRAL NEBRASKA HOURLY WEATHER ROUNDUP
NATIONAL WEATHER SERVICE NORTH PLATTE NE
1200 PM CST TUE JAN 24 2017

NOTE: "FAIR" INDICATES FEW OR NO CLOUDS BELOW 12,000 FEET WITH NO
SIGNIFICANT WEATHER AND/OR OBSTRUCTIONS TO VISIBILITY.

NOTE: STATIONS NOT REPORTING VARIABLES SUCH AS SKY/WEATHER OR
PRESSURE ARE PROVIDED BY RAWS AND APRS NETWORKS AND ARE NOT UNDER
NATIONAL WEATHER SERVICE QUALITY CONTROL.

...OBSERVATIONS IN AND NEAR THE EASTERN PANHANDLE OF NEBRASKA...

CITY           SKY/WX    TMP DP  RH WIND       PRES   REMARKS
PINE RIDGE     SNOW      22  20  92 NW9       29.72S VSB 1/2 WCI  12
CHADRON        SNOW      21  18  88 N16       29.77R VSB 1/2 WCI   7
ALLIANCE       FOG       20  17  88 N24G35    29.66S VSB 1/4 WCI   3
SIDNEY         LGT SNOW  23  19  85 N29       29.61F FOG     WCI   6
CRESCENT LAKE    N/A     22  22  98 N20G30      N/A  WCI   7
$$

...OBSERVATIONS IN NORTHERN NEBRASKA AND FAR SOUTHERN SOUTH DAKOTA...

CITY           SKY/WX    TMP DP  RH WIND       PRES   REMARKS
WINNER         SNOW      31  29  92 NE9       29.72S VSB 1/4 WCI  23
VALENTINE      SNOW      28  25  88 N10       29.65F VSB 1/4 WCI  19
THEDFORD       LGT SNOW  30  29  98 NE12      29.57F VSB 3/4 WCI  20
AINSWORTH      SNOW      28  28 100 NE13      29.63F VSB 1/2 WCI  18
O`NEILL        SNOW      30  29  97 NE16      29.62F VSB 1/4 WCI  19
ORD            LGT SNOW  32  29  88 E17G24    29.54F VSB 3/4 WCI  21
BROKEN BOW     LGT SNOW  31  30  96 E10       29.53F VSB 1   WCI  22
VALENTINE NWR    N/A     28  27  97 NE6G13      N/A  WCI  22
BUTTE            N/A     28  27  96 NE13        N/A  WCI  17
HALSEY           N/A     29  29  99 N3          N/A
CHAMBERS         N/A     31  29  90 N3          N/A
EWING            N/A     30  29  97 NE9G18      N/A  WCI  22
$$

...OBSERVATIONS IN SOUTHWEST NEBRASKA AND FAR NORTHEAST COLORADO...

CITY           SKY/WX    TMP DP  RH WIND       PRES   REMARKS
WRAY           CLOUDY    30  30 100 N20       29.56  WCI  18
HOLYOKE        CLOUDY    32  28  86 N17       29.58S WCI  21
IMPERIAL       CLOUDY    31  28  89 N16       29.55S WCI  20
OGALLALA       LGT SNOW  30  28  92 N16       29.58F VSB 3/4 WCI  18
NORTH PLATTE   CLOUDY    32  29  88 N7        29.55R WCI  26
MCCOOK         CLOUDY    32  31  96 N8        29.53S FOG     WCI  25
LEXINGTON      SNOW      31  30  94 NE14      29.49F VSB 1/2 WCI  21
STAPLETON        N/A     29  28  96 CALM        N/A
GOTHENBURG       N/A     32  32 100 NW3         N/A
CALLAWAY         N/A     29  28  97 CALM        N/A
$$

...OBSERVATIONS IN CENTRAL LINCOLN COUNTY AREA...

CITY           SKY/WX    TMP DP  RH WIND       PRES   REMARKS
N.P. AIRPORT   CLOUDY    32  29  88 N7        29.55R WCI  26
N.P. DOWNTOWN    N/A     30  28  94 NW5         N/A  WCI  25
N.P. SOUTHEAST   N/A     30  28  92 N3          N/A
N.P. HILLCREST   N/A     30  29  95 N9          N/A  WCI  22
$$

...SOME OBSERVATIONS FROM AROUND THE REGION...

CITY           SKY/WX    TMP DP  RH WIND       PRES   REMARKS
LARAMIE        LGT SNOW  16  12  84 N16       29.56S FOG     WCI   1
CHEYENNE       CLOUDY    18  14  84 N20G28    29.59F WCI   2
DENVER         CLOUDY    25  22  88 NE20      29.59R FOG     WCI  11
AKRON          CLOUDY    23  20  88 N18G29    29.58S WCI   9
SCOTTSBLUFF    CLOUDY    21  16  81 N21       29.70S HAZE    WCI   5
RAPID CITY     LGT SNOW  21  18  88 NW18      29.78S VSB 3/4 WCI   6
BISMARCK       CLOUDY    26  18  71 NW10      29.90S WCI  16
PIERRE         SNOW      27  26  96 NE15      29.77F VSB 1/2 WCI  15
SIOUX FALLS    CLOUDY    31  30  96 E16       29.77S WCI  20
OMAHA          FLURRIES  33  27  78 E14       29.65F WCI  23
GRAND ISLAND   CLOUDY    31  30  96 E20G26    29.53F WCI  19
KANSAS CITY    CLOUDY    36  32  85 E22       29.59F WCI  25
WICHITA        MOSUNNY   58  41  53 S17       29.44F
OKLAHOMA CITY  MOSUNNY   67  35  30 SW17      29.55F
DALLAS         PTSUNNY   72  44  36 S16       29.64F
AMARILLO       SUNNY     58  26  29 W30G43    29.59F
DODGE CITY     MOSUNNY   40  32  73 NW22      29.49R WCI  30
HAYS           CLOUDY    36  32  85 NW15      29.45S WCI  27
GOODLAND       CLOUDY    31  30  96 N22G31    29.50S WCI  18
$$




USA.gov is the U.S. government's official web portal to all federal, state and local government web resources and services.